Tracking 27380 objects as of 6-Jun-2023
HD Live streaming from Space Station
objects crossing your sky now

FLOCK 1C 3

Track FLOCK 1C 3 now!
10-day predictions
FLOCK 1C 3 is classified as:


NORAD ID: 40041
Int'l Code: 2014-033AH
Perigee: 560.8 km
Apogee: 577.0 km
Inclination: 98.0 °
Period: 95.9 minutes
Semi major axis: 6939 km
RCS: Unknown
Launch date: June 19, 2014
Source: United States (US)
Launch site: Orenburg, Russia (OREN)
Your satellite tracking list
Your tracking list is empty




NASA's NSSDC Master Catalog

Two Line Element Set (TLE):
1 40041U 14033AH  23157.35609549  .00012375  00000-0  95528-3 0  9999
2 40041  98.0489 118.0273 0011649 325.7475  34.2996 15.01664416487348
Source of the keplerian elements: AFSPC